Tracking 19246 objects as of 19-Aug-2018
HD Live streaming from Space Station
objects crossing your sky now

XM-2

Track XM-2 now!
XM-2 is classified as:


NORAD ID: 26724
Int'l Code: 2001-012A
Perigee: 36,112.1 km
Apogee: 36,150.0 km
Inclination: 3.0 °
Period: 1,453.4 minutes
Semi major axis: 42502 km
RCS: 25.1188 m2 (large)
Launch date: March 18, 2001
Source: United States (US)
Launch site: SEA LAUNCH (SEAL)

100 channels of digital music uplinked in the X-band from one or more ground stations.
aabbcc
Your satellite tracking list
Your tracking list is empty




NASA's NSSDC Master Catalog

Two Line Element Set (TLE):
1 26724U 01012A   18231.02714440 -.00000113  00000-0  00000+0 0  9997
2 26724   3.0290  77.8072 0004459  14.4886 345.7399  0.99080441 63702
Source of the keplerian elements: AFSPC